Dewpoint
1 1 1 1 1 1 0 1 1 2 2 -3 -1 3 5 6 7 7 6 2 -3 1 6 3 9 7 5 5 4 3 5 6 5 2 1 -1 -1 0 -1 -0 -1 -2 -2 1 5
1 -0 -1 -0 -0 -0 1 1 1 2 1 -1 -4 -3 2 4 6 7 6 3 -3 8 8 4 9 9 7 5 5 4 5 5 1 1 0 1 1 1 1 1 -0 -2 4 2 4
1 1 1 0 0 -0 -0 -0 0 1 0 1 0 1 2 3 6 7 6 4 -2 1 7 7 8 9 7 5 5 5 5 3 3 0 1 2 3 2 1 1 0 0 4 8 8
0 1 0 -1 -1 -1 -0 0 1 1 -1 -1 2 2 2 3 6 5 6 4 3 5 8 8 8 8 6 6 5 5 4 3 3 3 3 3 2 2 2 1 1 1 1 2 10
-0 -0 0 -1 -1 -2 -1 -3 -0 1 -1 -0 1 2 1 2 5 4 7 7 7 7 7 8 8 7 6 5 4 4 4 3 3 3 3 2 2 2 1 1 0 1 1 1 2
1 -0 -0 -0 -1 -2 -3 -2 -0 -1 -2 0 0 1 0 4 5 5 5 5 6 7 7 8 7 6 5 5 4 4 3 3 3 3 2 3 2 2 1 -0 -0 0 0 0 0
1 -0 -0 -1 -0 -1 -1 -3 0 -0 -1 0 0 -0 2 2 5 4 6 4 4 8 6 8 6 5 4 4 3 3 4 3 2 2 2 2 2 4 1 1 0 -1 -1 -0 0
1 1 -1 0 -0 -0 -2 -2 -3 -4 -1 1 0 0 1 -2 4 5 6 3 8 6 7 7 6 4 4 3 4 4 4 6 3 3 2 1 2 1 1 1 1 1 0 0 -1
1 1 1 -1 -1 0 -1 -2 -4 -4 -1 -1 0 0 2 2 3 4 6 6 8 6 6 6 6 6 4 5 6 5 6 6 4 3 3 3 4 2 1 1 0 -0 0 0 -0
-1 -1 1 -1 -1 -1 -2 -3 -4 -3 -2 -1 -2 2 3 4 2 3 5 7 7 6 6 6 6 6 5 5 6 7 6 5 4 1 3 4 4 2 0 -1 -1 -1 -1 -0 -0
0 -0 -0 1 -1 -1 -1 -2 -2 -1 -2 -1 0 3 4 4 4 3 6 8 6 6 7 6 7 7 5 4 3 3 4 5 3 1 1 2 2 0 -1 -1 -1 -1 -1 -1 -1
-0 -1 -0 2 -0 -0 0 -2 -0 -0 -2 -2 1 2 4 5 4 4 7 7 7 7 6 7 7 4 4 3 3 4 4 4 3 0 0 1 1 -1 -1 -1 -2 -2 -2 -3 -3
0 -1 0 -1 -1 0 0 -1 -1 -0 1 -0 2 3 5 4 5 6 6 6 5 6 5 5 6 4 4 5 6 5 5 4 4 1 -1 0 1 -2 -3 -4 -6 -8 -7 -7 -6
-1 -0 1 -2 0 -1 -1 -1 -0 1 1 3 3 5 4 4 5 6 6 6 7 5 6 6 6 6 6 6 5 6 2 2 1 2 4 -0 3 -1 -3 -6 -7 -5 -3 -3 -3
-3 -1 0 0 -0 -1 -0 -1 -1 1 5 3 4 5 3 3 4 5 5 4 6 6 6 6 7 7 7 6 4 4 0 0 0 1 0 1 2 -2 -6 -6 -6 -6 -4 -3 -2
-3 -2 -2 -1 -0 -1 -1 -0 0 -2 4 4 4 4 4 4 5 5 5 5 5 4 3 4 5 5 6 5 4 -1 -1 -1 -0 0 3 -1 0 -3 -6 -6 -6 -6 -4 -2 -1
-1 -1 -1 -0 -1 -0 0 0 -2 2 3 5 5 3 4 4 5 4 5 5 7 6 6 5 2 0 4 4 1 0 3 4 1 2 4 -0 1 -3 -5 -5 -5 -6 -5 -1 -0
-3 -3 0 0 1 1 1 -2 3 6 6 4 3 3 5 4 4 4 3 4 1 4 5 6 6 2 -0 1 3 1 2 3 2 -1 -0 -0 2 -3 -5 -6 -6 -6 -4 -1 1
-4 -4 1 1 1 1 1 3 1 4 4 3 1 3 4 4 5 4 3 3 1 1 3 3 4 0 -0 -0 -0 2 3 -2 1 -1 1 -2 -3 -7 -6 -5 -5 -5 -4 -2 -0
-3 -3 1 1 1 0 1 5 4 3 0 0 3 2 4 5 4 4 3 1 1 -0 -1 1 4 1 0 -1 -1 0 -1 2 0 0 0 -3 -2 -4 -5 -6 -5 -4 -4 -2 -0
-1 -2 1 0 1 1 3 4 3 3 2 0 2 2 3 4 3 4 3 -0 -0 0 -1 -1 2 3 1 2 2 1 2 0 -0 -0 0 -1 -5 -5 -5 -5 -4 -4 -3 -2 1
-2 -1 1 0 1 2 4 3 3 3 2 -1 -2 0 1 1 2 2 2 0 -1 -1 1 -1 1 3 3 -0 -1 -0 1 -1 1 -0 1 1 -1 -5 -5 -5 -5 -4 -3 -1 3
-0 -1 0 0 3 3 2 2 3 2 2 -0 -1 -2 -1 0 2 0 0 -1 -1 -1 0 -1 0 1 2 1 0 2 1 -1 -2 -1 2 1 -3 -5 -4 -4 -4 -3 -1 2 3
-1 -2 -0 1 1 1 2 2 2 1 1 -1 -1 -1 -1 -0 -0 1 0 1 -1 -1 -1 -2 -0 -0 -0 -1 1 2 2 -0 0 1 1 0 -1 -3 -4 -3 -3 -2 -0 3 2
-0 0 1 1 0 0 1 2 3 3 2 -1 -1 -1 -1 1 2 1 1 1 0 1 -0 -1 1 0 1 -0 1 1 2 1 1 0 2 -1 -0 -2 -2 -2 -2 -1 3 3 1
0 0 0 0 1 -0 -0 2 3 2 3 1 -1 -1 -0 1 -0 2 1 1 1 0 0 -1 3 2 1 1 2 3 2 1 1 1 0 1 1 -2 -2 -2 1 3 3 2 0
-0 0 0 -0 -1 -0 -0 1 2 2 2 2 -0 1 3 3 2 1 -1 -1 -1 1 1 1 2 0 0 0 2 3 2 2 1 1 1 2 0 -2 -1 0 1 3 3 1 -0
Wind_Speed
30 28 26 24 25 22 22 19 19 16 15 12 22 28 25 22 11 23 27 25 21 12 9 27 22 18 16 14 10 9 3 7 10 8 4 6 5 5 4 4 3 4 5 6 5
27 25 25 23 23 21 18 18 18 15 14 16 16 20 25 22 20 27 27 17 21 15 10 23 27 21 9 9 9 6 5 9 5 6 4 9 6 5 2 1 3 4 3 6 8
25 24 23 22 20 18 17 17 16 15 15 14 14 15 15 19 21 15 24 24 21 23 14 18 25 20 8 8 7 7 5 5 5 9 9 10 4 5 4 3 3 3 8 6 8
25 21 23 21 19 17 14 13 13 12 13 14 14 15 11 11 8 4 6 21 24 24 20 22 25 15 6 6 8 4 5 8 4 10 6 5 6 3 7 7 3 2 10 6 6
25 22 22 17 15 17 14 12 11 11 9 10 12 11 8 12 17 9 8 9 27 30 29 25 25 17 13 7 7 2 4 8 5 6 3 4 4 6 10 11 11 13 12 7 5
24 22 21 17 17 12 11 10 10 11 9 8 11 9 8 9 15 17 11 6 31 33 31 23 20 16 13 9 5 11 6 4 4 4 3 5 6 6 6 8 13 17 19 18 15
25 23 19 16 16 12 11 12 11 12 8 10 9 8 11 20 13 13 13 12 29 35 34 25 17 17 14 5 9 10 4 2 6 6 3 3 5 6 22 21 24 26 23 20 18
28 24 20 18 16 14 11 12 12 10 9 8 6 7 8 22 14 16 6 11 25 33 32 28 24 11 4 12 5 5 3 4 2 9 6 7 8 4 3 10 16 18 21 23 27
28 26 21 17 13 15 13 12 12 12 11 7 7 8 6 11 15 15 5 13 25 31 29 27 20 5 5 6 4 2 4 4 3 9 3 7 2 4 3 9 15 17 18 18 22
27 23 21 11 9 9 7 9 6 3 5 6 6 6 7 8 15 15 12 15 26 28 24 20 9 4 2 4 8 6 4 3 6 2 2 3 6 8 20 13 14 17 21 24 22
31 24 19 10 6 5 5 6 0 3 4 5 6 4 10 10 14 17 11 19 22 25 7 14 4 14 12 3 4 6 5 3 2 1 1 4 4 10 18 17 19 24 27 27 26
30 20 14 4 3 5 5 3 2 2 2 5 8 11 4 12 7 7 13 11 11 12 9 6 7 7 9 5 7 5 5 3 1 2 0 3 10 16 12 9 12 14 17 19 17
32 25 9 9 2 5 3 0 1 3 2 4 3 5 6 10 6 7 6 9 15 13 14 11 5 12 10 5 7 3 4 3 2 2 2 5 5 5 3 3 8 12 11 6 6
29 25 14 7 6 7 5 3 3 1 2 4 5 4 8 6 4 8 6 5 5 13 9 3 1 13 13 12 9 5 3 4 4 2 2 4 4 6 2 3 5 15 24 23 19
31 21 11 10 5 8 4 1 1 3 5 1 3 2 8 4 9 9 11 17 7 10 5 3 7 8 11 7 4 4 5 4 3 4 2 2 2 4 1 3 4 5 12 16 17
26 27 20 11 8 7 4 1 3 4 7 2 3 10 2 6 4 6 8 12 10 8 10 4 6 3 3 6 5 10 6 6 4 2 1 1 2 3 1 3 0 0 6 19 18
21 23 20 14 10 6 5 8 4 6 3 6 5 3 5 5 4 3 4 3 3 4 4 3 3 3 9 6 3 2 4 1 2 1 3 1 1 6 4 4 3 3 4 20 19
16 19 19 18 12 12 10 2 10 5 7 3 5 11 6 7 4 2 3 4 5 6 3 3 3 1 1 3 6 2 4 3 4 3 2 2 5 2 4 6 5 2 9 16 21
15 12 18 18 14 11 4 7 3 2 2 4 4 6 3 5 4 3 3 2 2 3 4 4 3 2 4 2 2 4 2 3 6 2 1 2 5 5 2 4 0 2 20 23 24
11 5 17 17 14 9 5 4 2 3 2 3 3 1 3 1 3 2 2 1 3 1 2 4 5 2 1 3 8 2 6 3 2 3 3 3 4 3 4 4 3 4 14 20 19
7 2 14 13 10 9 3 4 2 3 2 1 3 3 3 3 2 2 4 2 1 2 5 3 3 0 3 1 6 2 2 5 3 2 3 1 4 5 6 3 4 10 23 20 21
5 3 11 6 6 3 2 3 4 3 3 3 3 3 3 3 3 2 5 1 4 6 3 1 4 3 1 1 1 1 4 4 3 4 1 0 5 0 4 5 5 16 19 19 20
7 3 8 4 3 2 4 4 2 4 3 3 1 1 1 3 3 2 4 1 8 4 6 5 1 3 2 2 1 3 3 3 4 2 5 3 4 1 3 6 15 12 16 17 15
4 2 5 7 5 3 1 1 4 2 2 2 2 2 3 3 4 3 2 2 6 2 8 6 3 4 4 4 3 3 4 5 5 3 3 5 5 7 7 8 15 22 19 15 17
6 2 2 2 3 3 1 1 2 4 2 0 2 1 3 2 2 2 2 3 2 5 3 4 3 2 2 2 3 3 4 8 7 4 5 3 6 7 9 9 14 18 12 14 14
4 3 3 1 4 3 1 2 0 2 1 0 4 3 1 4 5 7 5 2 3 2 3 2 3 2 3 1 4 5 8 8 11 7 9 9 17 15 22 8 10 12 10 13 12
5 3 1 1 3 1 1 3 2 4 1 0 7 4 2 2 3 6 5 7 6 7 3 4 5 2 4 1 4 6 11 14 6 5 10 9 11 4 7 4 12 11 9 11 14
Wind_Direction
316 311 304 303 300 292 290 284 281 273 279 319 272 262 261 264 314 220 229 229 212 178 182 187 185 170 173 178 179 163 132 198 199 172 209 171 172 185 187 211 219 210 251 253 280
320 313 312 307 300 295 288 282 284 279 282 294 292 280 270 269 286 228 234 239 215 180 181 192 183 171 169 178 175 167 188 204 190 182 190 165 171 169 168 345 202 176 244 265 245
319 321 314 310 309 304 295 285 283 280 277 279 290 291 289 272 278 258 236 237 224 199 191 197 187 172 166 174 187 173 205 171 204 197 156 159 163 163 136 271 218 133 40 333 214
318 315 315 322 311 305 304 297 289 292 286 273 281 297 298 254 237 192 202 223 219 187 182 184 187 170 151 178 185 143 192 179 165 193 154 165 153 172 211 217 141 235 319 333 283
318 315 317 318 310 303 303 299 295 296 290 296 284 284 295 239 252 244 108 189 189 184 185 176 180 177 185 166 142 144 180 194 186 152 190 178 206 233 247 253 258 262 269 265 274
320 317 314 312 309 308 310 307 298 297 287 270 272 270 246 244 231 209 264 278 185 187 183 177 187 177 172 178 173 184 177 169 222 234 239 178 224 213 255 261 260 262 257 256 258
323 320 314 305 301 307 298 297 301 299 282 278 268 256 246 216 203 231 259 236 192 185 183 180 171 176 155 124 166 134 130 279 243 216 231 114 271 228 253 253 262 264 265 261 255
325 322 316 309 294 301 295 299 306 293 277 256 249 247 249 210 221 204 233 211 187 185 186 176 168 154 158 129 101 118 94 162 229 170 225 166 261 258 200 246 261 270 270 263 257
324 317 312 310 300 290 290 302 303 292 265 252 225 215 238 209 222 220 204 181 173 185 186 175 177 155 134 121 107 165 182 186 305 186 131 198 235 229 223 296 281 282 285 269 267
339 333 304 296 308 305 301 323 311 327 164 170 196 195 230 204 206 210 215 183 169 178 171 174 169 142 119 163 185 153 133 171 199 156 140 185 257 270 286 286 272 276 275 271 273
341 329 323 277 291 293 325 349 166 80 159 168 210 271 140 182 167 188 203 164 173 149 172 175 140 193 184 148 150 130 128 158 197 80 212 228 248 269 268 267 262 262 263 268 275
355 350 342 220 269 312 337 36 83 84 335 243 289 238 258 151 145 167 201 158 146 154 117 149 204 167 151 139 118 109 132 186 317 40 185 349 286 263 256 248 266 281 285 285 293
8 10 41 139 2 7 3 94 84 107 44 345 335 285 149 150 85 163 119 100 121 143 164 157 148 147 164 159 130 111 154 158 153 336 81 315 282 294 28 66 58 51 46 50 48
16 29 62 79 51 43 87 65 130 89 95 21 5 12 151 119 87 90 117 119 132 140 110 155 201 167 172 182 155 151 163 121 113 88 254 354 297 289 40 58 66 68 70 73 62
23 29 35 32 60 69 56 37 97 313 87 76 232 58 135 69 111 33 44 59 77 108 184 156 166 133 171 158 150 129 111 99 85 89 20 17 125 272 8 110 53 52 66 42 39
28 37 41 63 80 89 85 58 327 44 41 56 329 120 138 82 48 84 70 71 89 62 59 89 72 51 77 79 38 148 77 56 59 84 21 243 186 296 139 141 333 226 58 24 23
24 17 30 47 56 54 352 320 34 57 296 36 60 68 74 53 54 69 98 81 125 114 95 58 22 87 124 85 26 213 120 33 17 40 213 47 192 249 265 247 212 239 353 9 15
349 355 2 10 13 349 337 48 53 7 56 113 86 61 65 21 37 65 95 89 29 78 98 122 120 10 154 143 162 140 141 166 187 181 224 96 230 227 230 270 303 170 347 3 5
337 352 8 2 351 350 352 51 156 50 28 126 65 84 33 18 90 59 65 99 111 133 129 125 50 325 32 103 85 180 120 134 105 45 27 232 280 302 323 102 6 214 355 355 356
349 4 14 4 355 10 57 85 82 224 16 51 109 13 124 82 74 51 155 96 111 76 145 170 104 1 219 61 35 115 139 97 15 128 242 267 275 223 237 214 233 275 339 349 350
8 34 6 4 7 51 55 27 9 338 21 70 152 109 105 125 101 168 175 353 88 81 96 122 96 146 154 210 170 129 99 60 101 100 185 278 263 207 200 205 298 331 338 340 343
7 30 3 35 44 23 43 317 326 333 5 42 106 110 132 142 121 130 176 237 167 145 85 65 113 132 126 172 258 155 157 144 133 223 59 39 273 264 235 273 257 307 326 339 343
347 331 14 61 82 36 329 325 340 342 348 15 72 68 127 127 121 122 142 313 162 151 161 177 62 85 4 12 31 198 183 138 110 94 201 154 258 187 262 295 311 302 330 341 339
351 25 22 52 72 113 67 320 315 316 283 53 126 83 95 72 27 159 126 31 209 156 129 106 108 145 178 197 135 185 183 179 136 144 175 236 291 280 304 311 319 324 334 339 342
20 62 36 348 10 10 201 288 326 353 2 234 54 138 146 110 74 124 151 116 93 157 62 98 117 84 258 211 168 210 185 187 197 179 181 254 227 271 277 290 297 317 334 340 336
46 13 346 296 301 293 256 233 253 292 241 253 146 160 116 153 185 200 145 154 176 67 107 25 105 66 314 307 212 247 230 211 219 221 249 264 287 270 272 293 314 332 334 345 344
67 8 321 349 346 335 324 329 284 308 187 23 160 113 95 239 232 240 179 157 168 143 122 126 134 109 272 231 306 283 230 208 200 198 205 213 231 279 292 312 316 324 346 347 356
Height
1488 1484 1481 1479 1476 1475 1474 1474 1473 1473 1474 1474 1474 1473 1474 1473 1472 1475 1474 1478 1484 1486 1489 1493 1497 1500 1504 1507 1510 1510 1517 1520 1517 1521 1519 1518 1520 1520 1521 1522 1524 1524 1524 1523 1523
1483 1479 1476 1474 1471 1469 1468 1468 1468 1468 1469 1470 1470 1469 1469 1470 1469 1466 1470 1477 1480 1485 1487 1488 1492 1497 1503 1506 1508 1508 1512 1513 1511 1512 1514 1515 1517 1518 1520 1521 1521 1522 1523 1522 1521
1479 1475 1471 1469 1467 1466 1464 1464 1463 1464 1464 1465 1466 1465 1465 1467 1468 1460 1467 1472 1476 1481 1486 1489 1494 1497 1501 1504 1505 1505 1506 1508 1509 1509 1511 1514 1516 1517 1517 1519 1519 1520 1520 1520 1519
1475 1471 1468 1465 1464 1463 1461 1460 1459 1459 1459 1461 1462 1461 1462 1467 1462 1459 1461 1464 1471 1478 1482 1486 1492 1494 1498 1502 1503 1505 1504 1505 1507 1509 1512 1514 1515 1516 1516 1515 1518 1518 1519 1520 1519
1470 1467 1464 1461 1460 1459 1457 1456 1456 1456 1455 1456 1458 1459 1459 1461 1457 1459 1456 1461 1467 1474 1477 1480 1487 1491 1493 1499 1502 1503 1504 1505 1505 1508 1510 1512 1514 1515 1512 1513 1516 1517 1518 1520 1520
1466 1463 1461 1458 1457 1455 1454 1453 1453 1452 1452 1454 1455 1456 1457 1458 1456 1456 1456 1461 1464 1470 1474 1478 1483 1490 1494 1497 1499 1500 1503 1504 1504 1506 1508 1511 1512 1513 1511 1511 1511 1513 1516 1517 1518
1461 1458 1456 1454 1453 1452 1450 1450 1450 1450 1450 1451 1452 1452 1452 1450 1452 1454 1455 1458 1462 1466 1472 1478 1483 1489 1489 1495 1498 1500 1505 1504 1504 1506 1507 1509 1509 1508 1507 1509 1509 1510 1512 1513 1514
1456 1453 1451 1449 1448 1447 1446 1446 1446 1446 1446 1448 1449 1450 1447 1446 1450 1450 1455 1456 1460 1467 1473 1479 1484 1487 1489 1492 1497 1500 1503 1508 1502 1502 1504 1509 1508 1503 1504 1506 1506 1506 1506 1507 1508
1451 1447 1444 1444 1443 1443 1443 1443 1442 1442 1442 1445 1447 1448 1444 1442 1447 1449 1452 1455 1458 1467 1473 1480 1484 1485 1489 1492 1499 1502 1506 1507 1502 1500 1502 1505 1508 1503 1504 1504 1504 1503 1502 1502 1502
1446 1441 1439 1439 1439 1440 1440 1440 1439 1439 1440 1443 1445 1449 1440 1440 1443 1447 1451 1453 1459 1465 1475 1480 1482 1485 1490 1490 1494 1499 1503 1504 1503 1502 1503 1506 1507 1503 1500 1500 1500 1499 1497 1496 1497
1441 1435 1433 1434 1437 1438 1439 1439 1442 1442 1441 1441 1441 1436 1435 1439 1442 1446 1449 1452 1459 1463 1469 1473 1478 1478 1484 1488 1489 1493 1498 1500 1501 1502 1503 1504 1505 1500 1496 1496 1495 1492 1491 1490 1491
1437 1432 1430 1432 1436 1437 1438 1439 1440 1443 1442 1440 1438 1439 1436 1439 1443 1446 1448 1452 1455 1458 1465 1475 1477 1481 1486 1488 1489 1493 1499 1502 1502 1502 1503 1504 1500 1489 1489 1488 1488 1488 1487 1486 1487
1437 1430 1428 1432 1435 1437 1438 1439 1440 1441 1442 1442 1440 1437 1439 1442 1443 1449 1450 1454 1456 1461 1466 1471 1475 1478 1483 1488 1490 1495 1498 1502 1502 1503 1505 1506 1495 1487 1486 1486 1487 1486 1484 1482 1484
1441 1436 1435 1437 1439 1439 1439 1440 1441 1441 1442 1446 1443 1441 1441 1442 1446 1448 1450 1450 1455 1469 1470 1476 1476 1476 1480 1485 1486 1494 1496 1499 1502 1505 1506 1509 1501 1487 1488 1487 1488 1487 1485 1484 1485
1447 1443 1441 1440 1442 1441 1442 1441 1442 1442 1434 1452 1445 1442 1443 1444 1448 1451 1451 1451 1458 1465 1473 1479 1475 1475 1482 1484 1486 1495 1497 1502 1506 1510 1512 1512 1509 1485 1488 1487 1489 1489 1486 1485 1484
1455 1450 1446 1444 1445 1445 1443 1442 1443 1450 1441 1446 1444 1446 1447 1448 1450 1455 1456 1459 1466 1470 1472 1476 1477 1480 1485 1488 1490 1495 1499 1508 1514 1516 1516 1514 1511 1488 1488 1488 1488 1488 1486 1484 1481
1459 1455 1452 1449 1449 1448 1446 1444 1450 1452 1454 1451 1450 1447 1449 1451 1454 1455 1460 1465 1466 1475 1478 1483 1483 1484 1486 1492 1496 1495 1497 1514 1516 1521 1506 1518 1516 1490 1489 1486 1485 1486 1484 1481 1479
1460 1457 1454 1451 1449 1447 1447 1449 1446 1448 1447 1453 1452 1451 1455 1458 1460 1458 1461 1469 1469 1469 1481 1481 1490 1487 1487 1487 1491 1497 1497 1507 1498 1507 1506 1519 1505 1483 1484 1483 1483 1483 1481 1479 1477
1459 1458 1455 1451 1448 1446 1444 1445 1467 1458 1453 1453 1454 1459 1462 1460 1460 1462 1467 1469 1469 1470 1477 1487 1493 1489 1489 1487 1491 1498 1504 1506 1521 1533 1521 1505 1498 1485 1482 1482 1482 1481 1477 1474 1472
1459 1456 1454 1452 1448 1446 1446 1452 1459 1459 1455 1456 1462 1459 1464 1463 1464 1465 1466 1467 1470 1470 1471 1482 1495 1492 1491 1489 1493 1492 1500 1506 1519 1517 1504 1499 1500 1483 1483 1480 1479 1478 1476 1474 1472
1459 1458 1456 1453 1451 1449 1458 1461 1459 1458 1457 1457 1461 1462 1466 1467 1468 1470 1470 1469 1468 1471 1471 1478 1485 1495 1491 1492 1495 1499 1501 1507 1510 1515 1505 1497 1484 1479 1478 1476 1475 1473 1472 1471 1467
1459 1460 1457 1454 1456 1458 1462 1463 1461 1458 1456 1456 1457 1460 1463 1465 1468 1468 1470 1469 1468 1469 1474 1477 1488 1499 1493 1494 1493 1493 1495 1500 1506 1516 1521 1517 1488 1475 1477 1476 1475 1473 1471 1468 1466
1461 1459 1458 1455 1463 1466 1464 1462 1460 1459 1458 1456 1457 1458 1460 1464 1467 1468 1469 1469 1469 1470 1474 1476 1491 1507 1498 1498 1495 1494 1496 1498 1504 1511 1518 1504 1481 1475 1475 1473 1471 1470 1470 1467 1465
1462 1464 1460 1459 1462 1463 1465 1464 1462 1459 1458 1457 1458 1458 1460 1463 1465 1468 1469 1470 1469 1469 1470 1472 1486 1491 1495 1492 1493 1497 1494 1496 1497 1508 1503 1498 1486 1473 1472 1471 1468 1469 1467 1464 1460
1464 1468 1467 1468 1466 1465 1466 1464 1461 1460 1457 1457 1458 1458 1460 1464 1465 1467 1468 1468 1470 1470 1471 1474 1490 1493 1487 1486 1490 1488 1488 1493 1497 1494 1495 1486 1488 1474 1470 1470 1469 1467 1463 1461 1460
1468 1470 1469 1467 1467 1467 1465 1463 1461 1459 1459 1456 1458 1459 1459 1462 1463 1467 1466 1468 1468 1471 1473 1476 1489 1490 1495 1486 1488 1489 1485 1486 1486 1486 1488 1486 1480 1469 1465 1465 1465 1463 1462 1460 1457
1469 1470 1470 1468 1467 1467 1466 1463 1460 1459 1457 1456 1456 1457 1459 1459 1459 1460 1462 1463 1463 1469 1475 1477 1488 1498 1498 1487 1488 1486 1476 1475 1477 1478 1478 1485 1469 1463 1461 1463 1462 1460 1459 1457 1454